Lapse_Rate
6.1 6.0 6.1 6.2 6.4 6.4 5.9 6.0 6.1 6.1 6.1 6.2 6.0 6.0 6.0 6.0 6.3 6.3 6.4 6.2 6.0 5.8 5.7 5.7 5.7 5.6 5.5 5.4 5.3 5.3 5.2 5.3 5.3 5.4 5.5 5.5 5.7 5.7 5.7 5.8 5.6 5.8 6.0 6.1 6.0 6.0 6.0 5.9 6.1
6.0 5.9 6.1 6.2 6.3 6.3 6.0 6.0 6.1 6.1 6.3 6.2 6.1 6.1 6.1 6.1 6.2 6.1 6.2 6.1 5.6 5.6 5.5 5.7 5.7 5.7 5.6 5.4 5.3 5.3 5.2 5.3 5.5 5.6 5.5 5.6 5.4 5.6 5.5 5.5 5.5 5.7 5.8 6.1 6.0 6.0 6.1 6.0 6.2
6.2 6.1 6.2 6.2 6.3 6.3 6.1 6.1 6.3 6.3 6.3 6.2 6.0 6.0 6.0 6.1 6.2 6.2 6.2 6.3 5.9 5.6 5.5 5.6 5.5 5.7 5.5 5.3 5.3 5.3 5.2 5.0 5.2 5.4 5.4 5.5 5.4 5.2 5.5 5.5 5.8 5.8 5.7 6.2 6.1 6.2 6.2 6.3 6.4
6.3 6.4 6.4 6.3 6.4 6.4 6.2 6.0 6.0 6.1 6.2 6.0 5.9 6.0 6.0 6.1 6.3 6.3 6.1 6.0 5.9 5.7 5.3 5.4 5.4 5.2 5.4 5.5 5.4 5.3 5.1 5.1 5.2 5.3 5.3 5.5 5.4 5.4 5.3 5.6 5.7 5.7 5.7 6.0 6.3 6.3 6.3 6.4 6.3
6.3 6.5 6.1 5.8 5.9 6.1 5.9 5.9 6.1 5.9 5.9 5.9 5.9 6.1 6.1 6.0 6.1 6.3 5.9 5.7 5.7 5.6 5.6 5.6 5.4 5.4 5.2 5.2 5.3 5.3 5.1 5.2 5.3 5.3 5.3 5.2 5.4 5.3 5.0 5.4 5.6 5.9 6.0 6.3 6.3 6.2 6.1 6.1 6.2
6.2 5.9 5.9 5.6 5.6 5.8 5.7 6.0 6.1 5.9 5.9 5.8 5.9 6.0 5.9 5.9 5.8 5.9 5.6 5.5 5.5 5.6 5.7 5.7 5.5 5.5 5.2 5.1 5.0 5.0 5.1 5.1 5.2 5.3 5.2 5.1 5.3 5.2 5.4 5.5 5.6 6.0 6.3 6.4 6.2 6.2 6.3 6.3 6.5
6.1 5.7 5.8 5.6 5.7 5.8 5.7 6.0 5.9 5.7 6.0 5.8 5.7 5.9 5.8 5.7 5.6 5.6 5.6 5.5 5.5 5.6 5.7 5.6 5.3 5.3 5.2 5.1 5.3 5.1 5.1 5.3 5.2 5.2 5.0 5.0 5.1 5.1 5.5 5.7 6.0 6.2 6.3 6.4 6.4 6.6 6.5 6.4 6.4
6.1 5.8 5.7 5.9 5.9 5.9 5.8 5.9 5.7 5.6 5.9 5.7 5.8 5.8 5.7 5.6 5.4 5.7 5.4 5.2 5.3 5.5 5.6 5.8 5.4 5.2 5.1 5.0 5.1 5.0 5.1 5.2 5.2 5.2 5.0 4.9 5.2 5.4 5.7 5.9 6.0 6.4 6.5 6.7 6.7 6.5 6.6 6.5 6.6
5.8 5.9 5.9 6.0 5.7 5.7 5.9 6.1 5.9 5.8 5.8 5.6 5.7 5.8 5.9 5.5 5.5 5.5 5.4 5.3 5.3 5.4 5.4 5.7 5.6 5.4 5.2 5.2 5.0 5.1 4.9 5.1 5.0 4.9 5.0 4.8 5.1 5.4 5.6 5.8 6.2 6.5 6.7 6.8 6.6 6.5 6.4 6.6 6.7
5.9 5.9 5.6 5.7 5.6 5.5 5.5 5.9 6.0 5.7 5.7 5.6 5.8 5.8 5.8 5.8 5.7 5.4 5.5 5.4 5.5 5.5 5.4 5.6 5.7 5.5 5.3 5.3 5.3 5.2 5.0 5.1 5.2 4.8 4.8 5.1 5.3 5.6 5.5 5.9 6.3 6.6 6.8 6.9 6.9 6.7 6.6 6.4 6.3
6.2 5.9 5.3 5.0 5.5 5.5 5.5 6.1 6.2 5.5 5.7 5.6 5.7 5.7 5.6 5.8 5.8 5.6 5.6 5.5 5.6 5.6 5.3 5.3 5.4 5.4 5.3 5.3 5.2 5.2 5.3 5.0 5.0 4.6 4.6 5.1 5.4 5.6 5.7 5.8 6.2 6.4 6.7 7.0 7.1 6.9 6.5 6.5 6.1
6.1 5.9 5.4 5.1 5.5 5.5 5.5 6.0 6.1 5.6 6.0 5.6 5.7 5.6 5.4 5.8 5.8 5.7 5.7 5.5 5.6 5.5 4.9 4.9 5.0 5.3 5.2 5.3 5.5 5.4 5.3 5.0 4.9 4.6 4.9 5.0 5.5 5.6 5.7 5.8 6.2 6.4 6.8 7.0 7.0 6.8 6.5 6.4 6.4
6.2 5.8 5.4 5.1 5.3 5.3 5.4 5.7 6.2 6.0 5.8 5.6 5.7 5.6 5.4 5.7 5.6 5.6 5.5 5.5 5.4 5.4 4.7 4.5 4.8 4.9 5.1 5.5 5.5 5.4 5.2 5.0 5.0 4.9 5.0 5.2 5.4 5.7 5.6 5.8 6.0 6.4 6.8 6.8 6.9 6.7 6.4 6.4 6.2
6.1 5.9 5.5 4.8 5.0 5.4 5.5 5.6 6.0 6.0 5.8 5.7 5.7 5.6 5.4 5.6 5.5 5.4 5.4 5.5 5.6 5.4 4.8 4.3 4.4 4.8 4.9 5.2 5.2 5.1 5.0 5.1 5.2 5.1 5.4 5.4 5.5 5.6 5.8 5.7 5.9 6.2 6.6 6.6 6.5 6.8 6.8 6.5 6.4
6.2 5.9 5.5 5.0 5.4 6.0 6.0 5.8 6.1 5.7 5.8 5.6 5.7 5.6 5.4 5.3 5.4 5.4 5.3 5.6 5.4 4.9 4.8 4.2 4.7 4.4 4.9 4.8 4.9 5.0 5.0 5.1 5.4 5.3 5.6 5.5 5.6 5.7 5.7 5.7 5.9 6.1 6.2 6.3 6.3 6.6 6.7 6.3 6.3
6.9 6.3 5.8 5.8 6.0 6.1 5.5 6.1 6.3 5.7 5.8 5.7 5.6 5.6 5.3 5.1 5.3 5.3 5.2 5.4 5.5 5.0 4.9 4.9 4.8 4.9 4.9 5.0 5.3 5.3 5.3 5.3 5.5 5.3 5.5 5.5 5.8 5.9 5.6 5.7 5.9 6.1 6.1 6.1 6.3 6.2 6.2 6.3 6.3
6.9 6.6 6.3 6.5 6.7 6.3 5.8 5.6 5.8 5.8 5.7 5.8 5.7 5.5 5.5 5.4 5.4 5.2 5.1 5.2 5.4 5.2 5.0 5.1 5.0 5.1 5.0 4.9 5.0 5.4 5.8 5.7 5.7 5.4 5.5 5.6 5.9 6.0 5.7 5.9 5.9 6.0 6.0 6.0 6.2 6.1 6.1 6.1 6.3
7.1 6.8 7.0 6.9 6.9 6.6 6.2 6.1 6.2 6.0 5.8 5.8 5.9 5.8 5.6 5.5 5.3 5.2 5.1 5.0 5.4 5.2 5.4 5.3 5.0 5.0 5.3 5.5 5.0 4.9 5.8 5.6 5.9 5.7 5.6 5.7 6.0 6.0 5.9 5.8 5.9 5.8 5.8 6.0 6.1 6.2 6.4 6.0 6.2
7.5 7.4 7.2 7.0 7.1 7.1 6.9 6.5 6.4 6.4 6.3 6.1 6.3 6.1 6.0 5.6 5.3 5.2 5.2 5.1 5.4 5.4 5.4 5.7 5.5 5.3 5.0 4.8 5.1 5.3 5.9 6.1 6.1 5.7 5.8 6.0 6.0 6.0 5.9 5.9 5.9 5.7 5.8 5.7 6.0 6.1 6.1 6.4 6.2
7.6 7.3 7.0 7.3 7.3 7.2 7.0 7.2 6.7 6.7 6.9 6.8 6.3 6.4 6.3 5.8 5.6 5.3 5.3 5.3 5.3 5.4 5.6 5.7 5.9 5.6 5.3 5.4 5.6 5.5 5.7 5.6 5.6 5.7 5.8 6.1 6.0 5.9 5.8 5.8 5.8 5.7 5.8 5.8 6.0 6.0 6.0 6.1 6.2
7.8 7.7 7.3 6.7 7.0 7.3 7.1 7.6 7.7 7.6 7.2 7.0 7.0 6.6 6.4 5.9 6.0 5.6 5.6 5.6 5.5 5.4 5.5 5.8 5.6 5.7 5.6 5.6 5.7 5.6 5.7 5.7 5.5 5.5 5.8 5.9 6.0 5.9 5.7 5.8 5.7 5.9 6.1 6.1 6.0 6.0 6.2 6.2 6.3
7.8 7.8 7.6 7.2 6.8 6.9 7.1 7.5 8.1 7.7 7.9 7.7 7.1 6.9 6.5 6.2 6.0 5.8 5.7 5.7 5.8 5.4 5.4 5.5 5.5 5.6 5.8 5.8 5.8 5.6 5.4 5.5 5.4 5.5 5.7 5.8 6.0 6.0 5.9 5.9 5.9 6.2 6.3 6.2 6.0 6.0 6.1 6.2 6.2
8.0 8.2 7.8 7.2 6.7 6.9 7.0 6.6 8.4 8.1 8.0 8.0 7.7 7.4 6.8 6.4 6.2 6.3 6.0 5.7 5.6 5.4 5.6 5.5 5.4 5.6 5.9 6.2 6.0 5.9 5.7 5.6 5.6 5.5 5.3 5.6 5.8 5.9 5.9 6.1 6.2 6.2 6.2 6.1 6.0 6.0 6.1 6.1 6.0
8.3 8.3 7.9 7.1 7.0 7.4 7.0 6.9 8.1 8.2 8.1 7.9 7.9 7.6 7.2 6.8 6.4 6.2 6.1 6.1 5.5 5.6 5.4 5.9 5.6 5.7 6.0 6.0 6.2 6.3 6.0 6.1 6.0 5.4 5.3 5.1 5.3 5.6 5.8 5.8 6.1 6.3 6.2 6.0 5.9 6.1 6.3 6.1 6.1
8.6 8.1 8.3 8.0 7.9 8.4 7.2 6.8 8.5 8.1 8.0 8.0 7.8 7.4 7.2 6.9 6.5 6.1 6.1 6.4 5.8 6.0 5.8 5.7 5.8 5.9 6.1 6.2 6.1 6.1 6.3 6.2 6.0 5.7 5.4 5.3 5.2 5.4 5.6 5.8 6.1 6.3 6.3 6.1 5.8 5.8 6.2 6.2 6.1
8.5 8.2 8.8 8.4 8.5 8.4 7.2 7.7 8.7 8.2 7.8 7.9 7.8 7.4 7.2 6.9 6.4 6.3 6.2 6.1 6.2 6.3 6.1 6.0 6.1 5.9 5.9 6.2 5.9 6.0 6.1 6.2 6.0 5.9 5.5 5.5 5.5 5.4 5.5 5.6 5.9 6.1 6.2 6.1 6.0 5.7 5.6 5.9 6.1
8.5 8.1 8.8 8.2 7.7 7.8 7.8 8.7 8.9 8.5 8.2 8.0 8.0 7.7 7.2 7.0 6.6 6.4 6.6 6.4 6.4 6.5 6.4 6.4 6.3 6.2 6.0 5.9 5.9 5.7 5.8 6.1 6.1 6.0 5.8 5.9 5.7 5.5 5.6 5.3 5.4 5.7 5.9 6.1 6.0 5.9 5.7 5.7 5.7
8.4 8.7 8.5 8.3 8.4 8.4 8.0 7.8 8.8 8.7 8.4 8.2 7.9 7.6 7.3 6.9 6.6 6.5 6.7 6.5 6.7 6.4 6.3 6.5 6.5 6.2 5.9 5.9 6.1 5.9 5.7 5.8 6.0 6.1 6.0 6.0 6.0 5.9 5.7 5.6 5.3 5.3 5.7 6.0 6.3 5.9 5.7 5.9 5.8
8.4 8.4 8.7 8.3 8.4 9.4 9.0 8.7 9.2 8.9 8.7 8.3 8.1 7.7 7.3 7.1 6.9 6.8 6.6 6.5 6.6 6.6 6.5 6.5 6.3 6.4 6.2 6.1 6.1 6.0 5.9 5.7 5.7 6.1 6.1 6.1 5.9 6.1 6.0 5.7 5.7 5.6 5.6 5.7 5.9 5.7 5.7 5.6 5.8
8.2 8.5 8.7 8.8 8.4 8.3 8.3 8.5 8.9 9.1 9.0 8.7 8.3 7.9 7.6 7.1 6.9 6.7 6.7 6.6 6.6 6.6 6.4 6.3 6.2 6.4 6.2 6.2 6.0 6.0 5.8 5.8 5.8 6.0 5.8 5.6 5.6 5.7 5.9 6.0 5.8 5.8 5.8 5.9 5.7 5.6 5.7 5.7 5.5
Wind_Speed
10 7 2 1 1 1 3 4 2 5 2 2 3 1 4 2 1 0 3 3 8 11 11 12 11 12 12 11 10 11 12 12 11 11 12 12 12 11 11 11 10 13 13 12 13 11 12 11 11
9 4 1 1 1 3 3 2 3 4 6 10 7 5 3 2 2 5 9 6 5 10 11 9 11 12 11 13 10 10 11 11 11 10 11 11 12 12 11 12 11 13 11 10 13 11 10 10 9
6 1 1 1 1 2 2 2 9 10 8 2 4 5 2 2 1 11 4 11 9 7 7 7 11 10 13 12 11 10 10 10 11 11 11 11 12 12 14 12 13 12 14 12 12 10 10 8 6
2 1 1 1 5 3 2 3 7 10 5 3 7 6 4 5 9 4 12 11 10 7 6 5 7 8 10 10 12 13 10 8 10 11 12 11 11 13 14 13 13 12 13 11 10 9 7 5 3
1 0 2 3 2 1 1 4 6 4 3 4 1 4 3 2 3 10 12 10 10 8 6 5 7 2 3 8 9 10 15 11 10 11 10 11 12 13 13 14 13 12 11 10 9 7 4 2 1
0 1 1 4 2 1 0 9 4 4 3 4 4 5 3 2 7 11 10 9 9 8 9 9 11 11 13 4 7 7 9 10 9 13 9 10 11 13 16 14 14 11 11 9 6 4 2 3 4
1 1 1 3 2 5 3 8 3 5 4 3 7 4 3 6 8 11 9 7 7 8 9 9 10 7 8 11 3 7 8 8 10 13 12 11 13 13 14 12 11 9 9 7 3 1 2 3 4
2 1 3 2 3 4 4 2 6 4 5 8 2 4 6 11 10 10 10 8 7 6 7 8 9 5 1 8 1 7 10 8 10 11 11 10 12 13 14 10 8 7 7 3 1 1 2 3 5
1 0 0 1 1 4 4 4 2 2 9 4 3 4 7 16 13 12 10 8 7 6 6 9 9 8 8 3 6 9 13 10 6 7 9 8 7 9 10 8 6 5 3 1 1 2 4 4 5
3 2 3 1 2 1 4 4 3 4 5 4 7 10 15 15 14 13 11 9 9 8 8 8 11 12 15 14 12 16 7 10 3 3 5 6 7 7 7 6 2 2 1 1 3 4 6 6 4
1 2 4 1 5 3 3 4 2 5 3 5 10 15 15 14 13 11 10 9 9 9 6 7 7 8 10 9 9 8 8 7 3 3 3 5 5 4 4 3 2 2 2 3 2 3 3 5 6
2 0 3 2 2 2 1 4 3 7 2 7 14 16 14 14 12 11 10 9 9 10 9 8 8 6 7 9 7 9 7 6 5 4 3 4 4 3 2 3 2 1 2 2 3 4 5 5 5
2 1 3 4 2 4 1 2 2 6 5 12 15 14 13 11 9 7 6 6 7 9 9 9 8 6 8 7 8 9 7 6 5 4 3 3 3 2 3 3 2 1 1 2 2 5 4 5 4
1 4 1 3 4 5 4 1 2 3 11 12 13 13 10 10 9 6 6 6 7 9 10 10 8 8 9 5 6 6 6 6 5 4 3 3 3 1 3 3 1 1 1 2 4 4 3 3 4
4 2 1 4 5 2 6 2 2 3 10 13 12 10 10 9 8 9 7 6 8 10 11 6 6 8 5 6 7 5 5 5 4 3 2 3 3 3 3 3 1 0 0 4 3 3 1 2 3
2 1 3 2 1 4 5 4 9 4 11 12 12 10 9 10 10 8 8 6 8 10 11 8 6 8 6 4 5 4 4 2 3 3 2 4 3 3 3 2 1 0 1 2 1 2 1 2 2
0 4 3 2 5 1 1 3 16 7 10 12 12 11 10 9 9 9 10 8 9 10 11 10 9 7 6 4 3 3 3 4 4 4 3 3 3 2 2 2 1 1 1 2 2 1 2 3 3
5 5 3 5 6 6 6 12 8 9 13 13 12 12 11 12 13 11 11 10 9 9 10 10 8 5 6 4 3 3 3 3 4 3 4 5 3 3 4 2 1 0 0 1 2 3 2 2 4
6 4 7 3 6 10 12 13 12 12 15 14 14 13 14 15 10 10 11 11 11 10 9 9 9 8 5 5 4 3 4 3 2 3 4 6 5 6 4 1 1 1 1 2 2 3 3 1 3
7 9 8 2 4 10 6 15 16 14 19 19 17 16 16 14 12 12 13 13 14 14 13 11 11 10 7 5 3 1 3 2 1 4 6 6 8 7 5 2 0 1 0 2 2 2 3 1 3
8 9 4 5 5 8 5 10 12 13 18 17 17 16 15 16 16 14 14 16 14 14 15 14 13 12 11 8 4 2 2 2 4 4 4 6 9 8 6 4 3 1 2 3 3 2 3 3 1
4 2 5 6 3 3 1 5 3 6 13 17 20 18 17 16 16 15 16 16 17 15 13 14 14 13 11 12 8 8 6 5 4 4 2 4 8 8 7 7 6 3 3 3 3 2 3 1 3
4 2 7 5 3 3 4 4 4 2 9 18 21 20 18 18 18 18 18 18 17 14 14 14 13 13 12 13 12 9 8 5 3 3 4 5 6 8 8 8 8 5 4 3 3 3 2 2 2
9 9 8 4 1 3 1 4 5 4 4 5 16 20 20 20 19 17 16 14 12 14 14 13 14 14 14 13 13 12 11 8 5 5 5 5 5 4 6 8 8 7 5 4 3 3 4 4 3
4 4 1 2 3 3 1 4 10 5 8 8 11 19 21 19 17 16 17 17 15 16 16 14 14 15 15 15 14 13 13 11 9 7 6 6 6 6 7 7 7 6 7 6 4 3 3 4 3
10 5 4 5 4 4 3 5 3 3 6 10 10 10 15 18 17 17 19 18 18 18 17 16 15 15 15 15 14 13 13 9 9 9 6 5 6 6 5 7 9 9 8 7 5 4 4 5 5
6 8 2 2 1 3 2 6 9 4 1 2 3 6 11 15 17 18 18 17 16 17 17 17 15 13 14 15 12 12 12 12 11 11 8 7 6 5 4 7 8 9 8 8 6 5 6 6 5
6 9 4 3 4 7 4 5 8 3 5 3 4 7 10 12 14 14 14 16 14 16 15 15 16 16 15 13 13 11 12 13 12 10 10 9 7 6 6 7 9 9 8 8 8 6 6 5 4
5 5 2 2 4 7 6 5 5 7 6 9 8 7 9 12 14 13 13 11 12 12 13 14 14 11 13 13 12 12 11 12 12 12 11 11 11 9 9 8 8 9 9 9 9 9 7 7 7
3 7 6 6 5 1 3 5 3 6 5 8 10 10 9 10 11 11 12 12 12 13 13 14 13 13 13 11 12 13 12 11 12 13 14 12 13 12 11 8 7 8 8 7 9 10 9 9 9
Wind_Direction
149 140 149 173 191 74 61 50 359 109 99 92 110 193 168 53 169 179 141 128 144 145 149 160 164 161 152 146 141 136 138 140 139 137 132 130 133 130 124 117 113 105 108 111 107 108 104 104 98
145 141 64 103 91 118 86 54 83 54 112 122 104 105 84 106 70 116 147 142 135 137 148 158 166 164 161 148 152 149 149 146 142 144 131 129 127 134 129 117 110 104 111 106 111 109 102 94 95
150 326 242 97 96 79 94 62 135 128 146 174 113 61 73 57 72 146 124 140 139 130 134 160 166 161 166 163 157 162 159 157 157 143 136 133 134 137 132 118 111 115 111 108 108 104 98 99 110
182 164 100 107 117 89 34 179 138 127 126 97 118 88 96 13 140 148 142 142 135 122 130 162 162 171 168 169 167 176 157 170 154 152 143 141 138 131 127 129 117 117 110 110 104 98 98 109 126
53 315 83 99 95 39 309 178 168 118 96 111 113 115 84 78 93 137 142 142 137 126 130 116 83 33 196 199 185 164 152 157 157 143 133 140 142 130 127 117 126 119 113 106 95 89 84 72 11
227 344 146 158 139 332 135 149 134 90 92 128 107 112 107 102 139 147 143 137 130 124 110 104 82 42 354 286 177 170 152 136 143 122 124 126 132 127 125 135 132 128 116 103 95 88 67 16 8
351 28 114 126 52 74 129 153 140 122 138 90 122 104 111 152 137 146 141 136 135 128 119 117 100 66 358 337 221 157 119 121 112 109 118 131 131 130 125 127 125 127 112 112 116 91 21 2 346
89 66 154 170 129 95 115 121 132 135 95 122 117 166 169 164 149 143 136 131 130 126 122 125 118 124 101 313 282 91 67 75 98 104 121 130 130 123 125 128 133 125 114 136 113 348 350 330 327
144 13 60 20 190 121 64 144 102 35 127 110 17 154 136 147 150 146 139 138 142 131 125 129 144 166 168 193 167 98 78 25 51 94 103 101 93 116 126 102 132 124 122 200 275 309 302 303 278
22 339 25 2 219 143 88 73 152 160 149 98 88 108 132 150 162 161 163 164 162 156 143 142 150 174 190 198 150 133 185 150 252 94 109 106 105 116 119 127 144 118 138 265 295 313 313 289 299
92 312 343 15 295 256 337 45 331 164 204 178 165 149 151 163 173 175 173 175 168 159 164 158 148 154 147 126 123 136 139 144 156 125 127 101 112 114 107 140 155 164 232 253 291 304 305 305 308
275 26 332 343 281 278 214 310 136 202 5 162 151 156 156 173 177 180 176 172 171 173 174 163 162 149 116 111 122 152 151 167 153 176 149 127 138 126 131 149 161 171 236 282 318 327 333 317 324
302 353 13 357 126 51 19 11 332 187 99 129 140 158 166 180 180 183 184 175 175 183 172 166 165 139 133 119 153 148 158 161 164 167 157 171 186 155 156 151 167 137 229 253 280 323 349 347 351
23 78 10 348 360 46 20 285 232 130 140 137 154 167 173 188 181 191 196 182 177 176 173 166 168 148 147 144 160 150 161 161 174 175 186 201 189 161 149 149 147 81 183 265 315 313 289 8 5
132 329 109 47 334 9 334 173 22 156 168 155 170 176 181 196 184 213 211 186 178 183 168 166 157 167 168 169 156 163 162 153 167 198 168 138 137 140 144 153 197 323 86 306 309 316 316 350 10
317 295 343 94 299 3 333 313 312 183 176 174 181 188 196 203 205 213 218 194 170 184 182 168 186 178 170 155 150 156 150 180 222 220 169 130 127 158 163 174 166 76 39 349 25 16 11 330 337
231 324 286 289 189 97 346 270 265 205 199 188 194 195 206 209 216 212 218 198 176 190 188 188 186 180 163 174 146 180 178 217 238 228 209 170 180 166 198 119 101 49 74 52 17 340 327 350 348
324 307 255 260 189 188 217 248 252 208 212 209 202 206 211 219 215 209 209 202 183 189 195 191 196 174 180 173 171 190 214 215 220 215 208 191 166 152 158 103 12 144 26 80 25 330 354 339 337
287 266 276 234 190 196 220 253 260 220 209 220 209 214 217 224 214 204 203 206 185 190 196 201 192 196 183 186 193 189 205 215 224 205 170 172 161 159 141 156 285 170 56 39 358 343 336 349 346
263 283 271 277 177 209 225 251 250 228 211 214 215 216 221 223 208 204 198 203 196 193 200 196 203 190 202 203 190 213 179 183 204 204 202 203 170 172 174 198 291 81 52 350 334 360 333 355 350
281 261 263 291 162 223 291 272 233 235 219 214 218 226 225 220 213 204 200 203 200 199 199 201 202 203 194 204 211 183 170 172 186 199 204 194 179 183 193 206 255 294 314 323 327 345 332 348 344
303 289 253 177 208 311 259 305 264 214 221 218 218 219 223 214 215 207 202 205 204 206 202 204 205 202 205 189 204 210 218 213 203 186 191 192 192 193 198 198 203 202 262 290 304 301 320 291 308
340 23 137 164 187 283 189 255 270 202 219 225 221 224 218 209 208 206 204 204 207 202 203 204 203 202 207 195 200 206 218 231 203 192 177 191 186 199 198 206 202 195 215 228 262 285 278 261 282
145 106 92 89 163 262 40 258 271 218 207 226 219 217 214 210 208 208 204 197 200 200 201 200 199 206 200 203 201 203 207 219 220 201 192 191 195 210 216 217 208 216 213 221 243 259 239 246 239
206 185 232 228 207 274 349 226 266 261 246 244 222 217 214 207 202 200 199 198 200 199 205 204 202 210 203 202 202 206 212 208 222 224 213 198 200 212 222 224 219 218 214 218 226 229 235 247 241
198 234 254 275 263 326 145 241 265 258 282 281 249 229 216 207 198 198 198 199 200 200 200 200 200 212 203 205 210 201 209 213 216 225 234 234 223 220 206 215 224 224 217 216 222 231 239 245 248
165 210 292 194 76 255 294 274 266 262 351 274 161 179 196 202 193 197 200 201 200 202 204 204 202 211 207 205 209 210 205 214 219 226 218 230 237 228 219 216 223 224 217 209 211 237 234 234 242
218 142 179 218 221 254 227 276 287 331 158 172 200 189 185 190 197 198 200 202 203 202 204 205 204 208 211 210 208 211 210 210 219 221 222 220 222 226 248 244 233 227 222 218 213 220 227 236 239
165 211 201 257 275 259 261 256 220 252 209 182 197 201 188 191 196 200 201 206 203 197 198 203 205 208 205 207 211 214 216 216 216 225 227 225 225 219 233 236 252 248 229 216 217 222 223 219 231
222 219 213 249 227 239 300 263 206 244 237 214 187 191 193 206 203 201 198 191 195 194 193 200 200 202 211 211 210 215 220 219 224 230 228 224 229 226 218 227 237 257 254 256 229 218 227 223 234